Terminal Aerodrome Forecast
Issued by NWS

Home | Current Version | Previous Version | Text Only | Print | Product List | Glossary On
Versions: 1 2 3 4 5 6 7 8 9 10 11 12 13 14 15 16 17 18 19 20 21 22 23 24 25 26 27 28 29 30 31 32 33 34 35 36 37 38 39
000
FTUS43 KPAH 170500
TAFOWB
TAF
KOWB 170520Z 1706/1806 28010KT P6SM OVC020
     FM171000 30004KT P6SM BKN025
     FM171600 31004KT P6SM SCT100 BKN250
     FM180400 01003KT P6SM OVC100=

USA.gov is the U.S. government's official web portal to all federal, state and local government web resources and services.